Time,TemperatureF,DewpointF,PressureIn,WindDirection,WindDirectionDegrees,WindSpeedMPH,WindSpeedGustMPH,Humidity,HourlyPrecipIn,Conditions,Clouds,dailyrainin,SoftwareType,DateUTC
2013-02-26 00:00:00,36.2,30.2,29.91,NE,45,7.4,11.4,79,0.00,,,0.00,WUHU216HW,2013-02-26 05:00:00,
2013-02-26 00:05:00,35.8,30.2,29.90,NE,45,7.6,11.9,80,0.00,,,0.00,WUHU216HW,2013-02-26 05:05:00,
2013-02-26 00:10:00,35.6,30.6,29.89,ENE,68,4.0,11.9,82,0.00,,,0.00,WUHU216HW,2013-02-26 05:10:00,
2013-02-26 00:15:00,35.3,30.6,29.88,NNE,23,7.2,11.6,83,0.00,,,0.00,WUHU216HW,2013-02-26 05:15:00,
2013-02-26 00:20:00,35.3,30.6,29.88,NE,45,4.9,10.7,83,0.00,,,0.00,WUHU216HW,2013-02-26 05:20:00,
2013-02-26 00:25:00,35.1,30.7,29.87,ENE,68,6.9,10.5,84,0.00,,,0.00,WUHU216HW,2013-02-26 05:25:00,
2013-02-26 00:30:00,34.9,30.5,29.87,NE,45,5.8,9.2,84,0.00,,,0.00,WUHU216HW,2013-02-26 05:30:00,
2013-02-26 00:35:00,34.9,30.5,29.87,NNE,23,6.9,9.8,84,0.00,,,0.00,WUHU216HW,2013-02-26 05:35:00,
2013-02-26 00:40:00,34.7,30.6,29.88,NE,45,5.8,9.8,85,0.00,,,0.00,WUHU216HW,2013-02-26 05:40:00,
2013-02-26 00:45:00,34.7,30.6,29.88,ENE,68,7.6,11.0,85,0.00,,,0.00,WUHU216HW,2013-02-26 05:45:00,
2013-02-26 00:50:00,34.6,30.4,29.87,NE,45,2.7,11.0,85,0.00,,,0.00,WUHU216HW,2013-02-26 05:50:00,
2013-02-26 00:55:00,34.6,30.4,29.87,NE,45,6.0,11.4,85,0.00,,,0.00,WUHU216HW,2013-02-26 05:55:00,
2013-02-26 01:00:00,34.4,30.5,29.87,ESE,113,6.3,11.4,86,0.01,,,0.01,WUHU216HW,2013-02-26 06:00:00,
2013-02-26 01:05:00,34.2,30.6,29.87,ENE,68,6.9,10.3,87,0.01,,,0.01,WUHU216HW,2013-02-26 06:05:00,
2013-02-26 01:10:00,34.0,30.8,29.87,NE,45,6.3,9.6,88,0.01,,,0.01,WUHU216HW,2013-02-26 06:10:00,
2013-02-26 01:15:00,34.0,30.8,29.86,ENE,68,6.0,9.4,88,0.01,,,0.01,WUHU216HW,2013-02-26 06:15:00,
2013-02-26 01:20:00,33.8,30.9,29.86,NE,45,5.8,9.8,89,0.01,,,0.01,WUHU216HW,2013-02-26 06:20:00,
2013-02-26 01:25:00,33.8,30.9,29.85,NE,45,7.6,10.5,89,0.01,,,0.01,WUHU216HW,2013-02-26 06:25:00,
2013-02-26 01:30:00,33.8,30.9,29.85,NE,45,4.9,12.1,89,0.01,,,0.01,WUHU216HW,2013-02-26 06:30:00,
2013-02-26 01:35:00,33.7,30.7,29.85,NE,45,2.7,14.1,89,0.01,,,0.01,WUHU216HW,2013-02-26 06:35:00,
2013-02-26 01:40:00,33.7,30.7,29.85,NNE,23,9.6,14.1,89,0.02,,,0.02,WUHU216HW,2013-02-26 06:40:00,
2013-02-26 01:45:00,33.5,30.8,29.84,NE,45,6.3,10.5,90,0.02,,,0.02,WUHU216HW,2013-02-26 06:45:00,
2013-02-26 01:50:00,33.5,30.8,29.84,North,0,8.5,12.1,90,0.03,,,0.03,WUHU216HW,2013-02-26 06:50:00,
2013-02-26 01:55:00,33.5,30.8,29.84,NE,45,5.8,13.2,90,0.03,,,0.03,WUHU216HW,2013-02-26 06:55:00,
2013-02-26 02:00:00,33.3,30.7,29.83,NE,45,6.3,13.2,90,0.02,,,0.03,WUHU216HW,2013-02-26 07:00:00,
2013-02-26 02:05:00,33.3,31.0,29.83,NNE,23,7.4,12.5,91,0.02,,,0.03,WUHU216HW,2013-02-26 07:05:00,
2013-02-26 02:10:00,33.1,30.8,29.83,NE,45,4.3,12.5,91,0.02,,,0.03,WUHU216HW,2013-02-26 07:10:00,
2013-02-26 02:15:00,33.1,30.8,29.83,NNE,23,5.4,11.4,91,0.03,,,0.04,WUHU216HW,2013-02-26 07:15:00,
2013-02-26 02:20:00,33.1,30.8,29.82,NE,45,5.1,10.5,91,0.03,,,0.04,WUHU216HW,2013-02-26 07:20:00,
2013-02-26 02:25:00,32.9,30.6,29.81,NE,45,8.5,10.7,91,0.03,,,0.04,WUHU216HW,2013-02-26 07:25:00,
2013-02-26 02:30:00,32.9,30.9,29.81,NE,45,7.4,11.0,92,0.03,,,0.04,WUHU216HW,2013-02-26 07:30:00,
2013-02-26 02:35:00,32.8,30.7,29.80,NE,45,9.2,14.5,92,0.03,,,0.04,WUHU216HW,2013-02-26 07:35:00,
2013-02-26 02:40:00,32.8,30.7,29.81,ENE,68,6.9,15.0,92,0.02,,,0.04,WUHU216HW,2013-02-26 07:40:00,
2013-02-26 02:45:00,32.8,30.7,29.81,NE,45,9.4,15.0,92,0.03,,,0.05,WUHU216HW,2013-02-26 07:45:00,
2013-02-26 02:50:00,32.8,30.7,29.80,NE,45,6.9,11.6,92,0.02,,,0.05,WUHU216HW,2013-02-26 07:50:00,
2013-02-26 02:55:00,32.8,30.7,29.79,ENE,68,7.2,10.1,92,0.05,,,0.08,WUHU216HW,2013-02-26 07:55:00,
2013-02-26 03:00:00,32.6,30.5,29.80,NE,45,7.4,11.9,92,0.06,,,0.09,WUHU216HW,2013-02-26 08:00:00,
2013-02-26 03:05:00,32.6,30.5,29.80,ENE,68,7.8,14.1,92,0.07,,,0.10,WUHU216HW,2013-02-26 08:05:00,
2013-02-26 03:10:00,32.6,30.5,29.80,NE,45,8.3,14.1,92,0.10,,,0.13,WUHU216HW,2013-02-26 08:10:00,
2013-02-26 03:15:00,32.6,30.5,29.80,NNE,23,6.3,20.6,92,0.11,,,0.15,WUHU216HW,2013-02-26 08:15:00,
2013-02-26 03:20:00,32.4,30.3,29.80,NE,45,7.4,20.6,92,0.13,,,0.17,WUHU216HW,2013-02-26 08:20:00,
2013-02-26 03:25:00,32.4,30.3,29.80,NNE,23,6.0,12.1,92,0.15,,,0.19,WUHU216HW,2013-02-26 08:25:00,
2013-02-26 03:30:00,32.4,30.3,29.80,ENE,68,6.5,12.1,92,0.16,,,0.20,WUHU216HW,2013-02-26 08:30:00,
2013-02-26 03:35:00,32.4,30.3,29.80,ENE,68,7.4,9.8,92,0.17,,,0.21,WUHU216HW,2013-02-26 08:35:00,
2013-02-26 03:40:00,32.2,30.2,29.79,ENE,68,3.8,9.8,92,0.18,,,0.22,WUHU216HW,2013-02-26 08:40:00,
2013-02-26 03:45:00,32.2,30.2,29.80,ENE,68,4.9,9.2,92,0.18,,,0.23,WUHU216HW,2013-02-26 08:45:00,
2013-02-26 03:50:00,32.2,30.2,29.81,NE,45,3.1,9.2,92,0.18,,,0.24,WUHU216HW,2013-02-26 08:50:00,
2013-02-26 03:55:00,32.2,30.2,29.80,NE,45,7.2,9.2,92,0.17,,,0.25,WUHU216HW,2013-02-26 08:55:00,
2013-02-26 04:00:00,32.2,30.2,29.80,NE,45,8.3,14.1,92,0.16,,,0.25,WUHU216HW,2013-02-26 09:00:00,
2013-02-26 04:05:00,32.2,30.2,29.80,NNE,23,7.4,14.3,92,0.16,,,0.26,WUHU216HW,2013-02-26 09:05:00,
2013-02-26 04:10:00,32.2,30.2,29.81,ENE,68,4.0,14.3,92,0.14,,,0.27,WUHU216HW,2013-02-26 09:10:00,
2013-02-26 04:15:00,32.2,30.2,29.80,NE,45,6.9,10.7,92,0.13,,,0.28,WUHU216HW,2013-02-26 09:15:00,
2013-02-26 04:20:00,32.2,30.2,29.79,NNE,23,4.7,10.7,92,0.12,,,0.29,WUHU216HW,2013-02-26 09:20:00,
2013-02-26 04:25:00,32.2,30.2,29.78,NE,45,6.3,12.8,92,0.12,,,0.31,WUHU216HW,2013-02-26 09:25:00,
2013-02-26 04:30:00,32.2,30.2,29.78,NNE,23,6.3,12.8,92,0.12,,,0.32,WUHU216HW,2013-02-26 09:30:00,
2013-02-26 04:35:00,32.0,30.1,29.78,ENE,68,8.5,13.9,92,0.13,,,0.34,WUHU216HW,2013-02-26 09:35:00,
2013-02-26 04:40:00,32.0,30.1,29.77,East,90,13.6,13.9,92,0.13,,,0.35,WUHU216HW,2013-02-26 09:40:00,
2013-02-26 04:45:00,32.0,30.1,29.77,North,0,10.7,13.6,92,0.14,,,0.37,WUHU216HW,2013-02-26 09:45:00,
2013-02-26 04:50:00,32.0,30.2,29.76,East,90,2.9,13.6,93,0.14,,,0.38,WUHU216HW,2013-02-26 09:50:00,
2013-02-26 04:55:00,32.0,30.1,29.77,East,90,5.6,11.9,92,0.16,,,0.41,WUHU216HW,2013-02-26 09:55:00,
2013-02-26 05:00:00,32.2,30.4,29.77,ENE,68,11.0,12.1,93,0.18,,,0.43,WUHU216HW,2013-02-26 10:00:00,
2013-02-26 05:05:00,32.2,30.4,29.78,NNE,23,4.3,14.5,93,0.18,,,0.44,WUHU216HW,2013-02-26 10:05:00,
2013-02-26 05:10:00,32.2,30.2,29.78,NE,45,6.3,14.5,92,0.19,,,0.46,WUHU216HW,2013-02-26 10:10:00,
2013-02-26 05:15:00,32.2,30.2,29.77,ENE,68,10.3,11.0,92,0.20,,,0.48,WUHU216HW,2013-02-26 10:15:00,
2013-02-26 05:20:00,32.2,30.2,29.78,NNE,23,8.5,13.4,92,0.22,,,0.51,WUHU216HW,2013-02-26 10:20:00,
2013-02-26 05:25:00,32.4,30.3,29.77,ENE,68,6.3,13.4,92,0.20,,,0.51,WUHU216HW,2013-02-26 10:25:00,
2013-02-26 05:30:00,32.4,30.3,29.76,ENE,68,7.2,13.4,92,0.21,,,0.53,WUHU216HW,2013-02-26 10:30:00,
2013-02-26 05:35:00,32.4,30.3,29.75,ENE,68,6.3,11.2,92,0.20,,,0.54,WUHU216HW,2013-02-26 10:35:00,
2013-02-26 05:40:00,32.4,30.3,29.75,East,90,6.9,10.1,92,0.21,,,0.56,WUHU216HW,2013-02-26 10:40:00,
2013-02-26 05:45:00,32.4,30.3,29.74,NNE,23,5.8,12.1,92,0.19,,,0.56,WUHU216HW,2013-02-26 10:45:00,
2013-02-26 05:50:00,32.6,30.5,29.73,NE,45,13.0,14.3,92,0.19,,,0.58,WUHU216HW,2013-02-26 10:50:00,
2013-02-26 05:55:00,32.6,30.5,29.73,NNE,23,8.9,17.9,92,0.17,,,0.58,WUHU216HW,2013-02-26 10:55:00,
2013-02-26 06:00:00,32.6,30.5,29.72,ENE,68,10.5,17.9,92,0.17,,,0.60,WUHU216HW,2013-02-26 11:00:00,
2013-02-26 06:05:00,32.8,30.7,29.72,NE,45,8.3,16.3,92,0.16,,,0.60,WUHU216HW,2013-02-26 11:05:00,
2013-02-26 06:09:00,32.8,30.7,29.72,ENE,68,5.4,13.2,92,0.14,,,0.60,WUHU216HW,2013-02-26 11:09:00,
2013-02-26 06:14:00,32.8,30.7,29.72,NE,45,6.0,11.9,92,0.14,,,0.62,WUHU216HW,2013-02-26 11:14:00,
2013-02-26 06:19:00,32.8,30.7,29.72,NNE,23,6.3,11.2,92,0.12,,,0.63,WUHU216HW,2013-02-26 11:19:00,
2013-02-26 06:24:00,32.8,30.7,29.71,North,0,13.2,13.2,92,0.13,,,0.64,WUHU216HW,2013-02-26 11:24:00,
2013-02-26 06:29:00,32.9,30.9,29.71,NE,45,4.7,16.3,92,0.13,,,0.66,WUHU216HW,2013-02-26 11:29:00,
2013-02-26 06:34:00,32.9,30.9,29.72,NE,45,7.2,16.3,92,0.13,,,0.67,WUHU216HW,2013-02-26 11:34:00,
2013-02-26 06:39:00,33.1,31.1,29.74,NE,45,4.7,13.0,92,0.13,,,0.69,WUHU216HW,2013-02-26 11:39:00,
2013-02-26 06:44:00,32.9,30.9,29.72,North,0,8.5,10.1,92,0.16,,,0.72,WUHU216HW,2013-02-26 11:44:00,
2013-02-26 06:49:00,32.9,30.9,29.73,NNE,23,8.5,13.0,92,0.17,,,0.75,WUHU216HW,2013-02-26 11:49:00,
2013-02-26 06:54:00,32.9,30.9,29.73,NE,45,3.6,13.0,92,0.19,,,0.77,WUHU216HW,2013-02-26 11:54:00,
2013-02-26 06:59:00,32.9,30.9,29.73,NE,45,5.4,12.5,92,0.19,,,0.79,WUHU216HW,2013-02-26 11:59:00,
2013-02-26 07:04:00,32.9,30.9,29.71,NE,45,4.9,8.7,92,0.22,,,0.82,WUHU216HW,2013-02-26 12:04:00,
2013-02-26 07:09:00,32.9,30.9,29.72,ENE,68,4.7,9.6,92,0.24,,,0.84,WUHU216HW,2013-02-26 12:09:00,
2013-02-26 07:14:00,32.9,30.9,29.72,NE,45,7.6,9.6,92,0.23,,,0.85,WUHU216HW,2013-02-26 12:14:00,
2013-02-26 07:19:00,32.9,30.9,29.70,East,90,10.3,12.3,92,0.25,,,0.88,WUHU216HW,2013-02-26 12:19:00,
2013-02-26 07:24:00,32.9,31.2,29.69,NNE,23,1.3,12.3,93,0.27,,,0.91,WUHU216HW,2013-02-26 12:24:00,
2013-02-26 07:29:00,32.9,31.2,29.70,NE,45,5.6,11.6,93,0.27,,,0.93,WUHU216HW,2013-02-26 12:29:00,
2013-02-26 07:34:00,32.9,31.2,29.70,NNE,23,9.8,11.9,93,0.27,,,0.94,WUHU216HW,2013-02-26 12:34:00,
2013-02-26 07:39:00,33.1,31.3,29.69,ENE,68,5.8,11.9,93,0.27,,,0.96,WUHU216HW,2013-02-26 12:39:00,
2013-02-26 07:44:00,33.1,31.3,29.68,ENE,68,9.8,10.5,93,0.26,,,0.98,WUHU216HW,2013-02-26 12:44:00,
2013-02-26 07:49:00,33.1,31.3,29.67,NE,45,8.3,11.4,93,0.26,,,1.01,WUHU216HW,2013-02-26 12:49:00,
2013-02-26 07:54:00,33.1,31.3,29.67,NE,45,9.8,11.4,93,0.27,,,1.04,WUHU216HW,2013-02-26 12:54:00,
2013-02-26 07:59:00,33.1,31.3,29.68,ENE,68,6.5,11.4,93,0.28,,,1.07,WUHU216HW,2013-02-26 12:59:00,
2013-02-26 08:04:00,33.1,31.3,29.69,ENE,68,6.3,11.4,93,0.28,,,1.10,WUHU216HW,2013-02-26 13:04:00,
2013-02-26 08:09:00,33.1,31.3,29.70,NNE,23,4.0,8.7,93,0.27,,,1.11,WUHU216HW,2013-02-26 13:09:00,
2013-02-26 08:14:00,33.1,31.3,29.71,East,90,6.0,9.8,93,0.26,,,1.12,WUHU216HW,2013-02-26 13:14:00,
2013-02-26 08:19:00,33.3,31.4,29.70,NNE,23,7.2,9.8,93,0.26,,,1.14,WUHU216HW,2013-02-26 13:19:00,
2013-02-26 08:24:00,33.3,31.4,29.69,NE,45,9.2,10.3,93,0.25,,,1.16,WUHU216HW,2013-02-26 13:24:00,
2013-02-26 08:29:00,33.5,31.6,29.70,NE,45,8.3,12.3,93,0.23,,,1.16,WUHU216HW,2013-02-26 13:29:00,
2013-02-26 08:34:00,33.5,31.6,29.70,NNE,23,6.5,12.3,93,0.22,,,1.16,WUHU216HW,2013-02-26 13:34:00,
2013-02-26 08:39:00,33.5,31.6,29.70,NNE,23,6.3,8.9,93,0.21,,,1.17,WUHU216HW,2013-02-26 13:39:00,
2013-02-26 08:44:00,33.7,32.0,29.69,NNE,23,8.5,8.5,94,0.20,,,1.18,WUHU216HW,2013-02-26 13:44:00,
2013-02-26 08:49:00,33.7,32.0,29.68,ENE,68,4.7,11.4,94,0.18,,,1.19,WUHU216HW,2013-02-26 13:49:00,
2013-02-26 08:54:00,33.7,32.0,29.67,NE,45,6.3,11.4,94,0.15,,,1.19,WUHU216HW,2013-02-26 13:54:00,
2013-02-26 08:59:00,33.7,32.0,29.67,NE,45,7.4,11.0,94,0.12,,,1.19,WUHU216HW,2013-02-26 13:59:00,
2013-02-26 09:04:00,33.8,32.2,29.66,NE,45,5.4,9.4,94,0.11,,,1.21,WUHU216HW,2013-02-26 14:04:00,
2013-02-26 09:09:00,33.8,32.2,29.66,ENE,68,11.2,11.2,94,0.10,,,1.21,WUHU216HW,2013-02-26 14:09:00,
2013-02-26 09:14:00,33.8,32.2,29.66,North,0,5.1,11.2,94,0.09,,,1.21,WUHU216HW,2013-02-26 14:14:00,
2013-02-26 09:19:00,33.8,32.2,29.65,ENE,68,10.5,13.0,94,0.07,,,1.21,WUHU216HW,2013-02-26 14:19:00,
2013-02-26 09:24:00,34.0,32.4,29.65,ENE,68,6.9,13.0,94,0.05,,,1.21,WUHU216HW,2013-02-26 14:24:00,
2013-02-26 09:29:00,34.0,32.4,29.65,ENE,68,4.0,12.8,94,0.07,,,1.23,WUHU216HW,2013-02-26 14:29:00,
2013-02-26 09:34:00,34.0,32.4,29.65,ENE,68,7.8,13.0,94,0.09,,,1.25,WUHU216HW,2013-02-26 14:34:00,
2013-02-26 09:39:00,34.0,32.4,29.65,North,0,7.6,13.0,94,0.08,,,1.25,WUHU216HW,2013-02-26 14:39:00,
2013-02-26 09:44:00,34.2,32.6,29.65,ENE,68,5.6,8.7,94,0.07,,,1.25,WUHU216HW,2013-02-26 14:44:00,
2013-02-26 09:49:00,34.2,32.6,29.65,ENE,68,6.5,12.1,94,0.06,,,1.25,WUHU216HW,2013-02-26 14:49:00,
2013-02-26 09:54:00,34.2,32.6,29.64,North,0,4.3,12.1,94,0.06,,,1.25,WUHU216HW,2013-02-26 14:54:00,
2013-02-26 09:59:00,34.2,32.6,29.65,NNE,23,6.5,9.8,94,0.06,,,1.25,WUHU216HW,2013-02-26 14:59:00,
2013-02-26 10:04:00,34.2,32.6,29.64,NE,45,11.9,11.9,94,0.04,,,1.25,WUHU216HW,2013-02-26 15:04:00,
2013-02-26 10:10:00,34.2,32.6,29.63,East,90,6.9,14.3,94,0.04,,,1.25,WUHU216HW,2013-02-26 15:10:00,
2013-02-26 10:14:00,34.4,32.8,29.64,NNE,23,4.5,14.3,94,0.04,,,1.25,WUHU216HW,2013-02-26 15:14:00,
2013-02-26 10:19:00,34.4,32.8,29.62,NE,45,8.5,10.5,94,0.04,,,1.25,WUHU216HW,2013-02-26 15:19:00,
2013-02-26 10:24:00,34.4,32.8,29.62,ENE,68,6.9,10.5,94,0.04,,,1.25,WUHU216HW,2013-02-26 15:24:00,
2013-02-26 10:29:00,34.6,32.9,29.62,NE,45,6.0,9.8,94,0.02,,,1.25,WUHU216HW,2013-02-26 15:29:00,
2013-02-26 10:34:00,34.6,32.9,29.62,NE,45,7.4,9.8,94,0.00,,,1.25,WUHU216HW,2013-02-26 15:34:00,
2013-02-26 10:39:00,34.6,32.9,29.61,ENE,68,7.4,9.8,94,0.01,,,1.26,WUHU216HW,2013-02-26 15:39:00,
2013-02-26 10:44:00,34.6,32.9,29.61,East,90,8.5,9.4,94,0.01,,,1.26,WUHU216HW,2013-02-26 15:44:00,
2013-02-26 10:49:00,34.6,32.9,29.61,NE,45,6.0,9.2,94,0.01,,,1.26,WUHU216HW,2013-02-26 15:49:00,
2013-02-26 10:54:00,34.6,32.9,29.59,NNE,23,16.1,16.1,94,0.01,,,1.26,WUHU216HW,2013-02-26 15:54:00,
2013-02-26 10:59:00,34.6,32.9,29.58,NNE,23,6.7,16.1,94,0.01,,,1.26,WUHU216HW,2013-02-26 15:59:00,
2013-02-26 11:04:00,34.7,33.1,29.57,ENE,68,9.8,16.1,94,0.01,,,1.26,WUHU216HW,2013-02-26 16:04:00,
2013-02-26 11:09:00,34.7,33.1,29.55,ENE,68,8.9,13.0,94,0.02,,,1.27,WUHU216HW,2013-02-26 16:09:00,
2013-02-26 11:14:00,34.9,33.3,29.56,NNE,23,8.5,13.0,94,0.02,,,1.27,WUHU216HW,2013-02-26 16:14:00,
2013-02-26 11:19:00,34.9,33.3,29.56,NNE,23,9.8,13.0,94,0.02,,,1.27,WUHU216HW,2013-02-26 16:19:00,
2013-02-26 11:25:00,34.9,33.3,29.56,ENE,68,7.8,13.0,94,0.02,,,1.27,WUHU216HW,2013-02-26 16:25:00,
2013-02-26 11:30:00,34.9,33.3,29.56,ENE,68,7.4,11.9,94,0.02,,,1.27,WUHU216HW,2013-02-26 16:30:00,
2013-02-26 11:35:00,34.9,33.3,29.56,NNE,23,5.6,11.9,94,0.02,,,1.27,WUHU216HW,2013-02-26 16:35:00,
2013-02-26 11:40:00,35.1,33.5,29.57,NE,45,7.4,11.0,94,0.01,,,1.27,WUHU216HW,2013-02-26 16:40:00,
2013-02-26 11:45:00,35.1,33.5,29.57,NNE,23,4.9,11.0,94,0.01,,,1.27,WUHU216HW,2013-02-26 16:45:00,
2013-02-26 11:50:00,35.1,33.5,29.57,NE,45,8.5,10.5,94,0.02,,,1.28,WUHU216HW,2013-02-26 16:50:00,
2013-02-26 11:55:00,35.1,33.5,29.57,NNE,23,5.4,9.4,94,0.02,,,1.28,WUHU216HW,2013-02-26 16:55:00,
2013-02-26 12:00:00,35.3,33.7,29.57,East,90,5.6,9.8,94,0.02,,,1.28,WUHU216HW,2013-02-26 17:00:00,
2013-02-26 12:05:00,35.5,33.8,29.57,NNE,23,4.0,9.8,94,0.02,,,1.28,WUHU216HW,2013-02-26 17:05:00,
2013-02-26 12:10:00,35.5,33.8,29.57,NNE,23,6.7,9.2,94,0.01,,,1.28,WUHU216HW,2013-02-26 17:10:00,
2013-02-26 12:15:00,35.6,34.0,29.55,NE,45,7.2,9.2,94,0.03,,,1.30,WUHU216HW,2013-02-26 17:15:00,
2013-02-26 12:20:00,35.6,34.0,29.55,NE,45,4.0,9.2,94,0.03,,,1.30,WUHU216HW,2013-02-26 17:20:00,
2013-02-26 12:25:00,35.6,34.0,29.54,NNE,23,5.4,7.2,94,0.05,,,1.32,WUHU216HW,2013-02-26 17:25:00,
2013-02-26 12:30:00,35.8,34.2,29.54,NNE,23,5.1,6.9,94,0.06,,,1.33,WUHU216HW,2013-02-26 17:30:00,
2013-02-26 12:35:00,36.0,34.4,29.54,NE,45,3.6,9.8,94,0.06,,,1.33,WUHU216HW,2013-02-26 17:35:00,
2013-02-26 12:40:00,36.0,34.4,29.54,NNE,23,4.3,9.8,94,0.07,,,1.34,WUHU216HW,2013-02-26 17:40:00,
2013-02-26 12:45:00,36.0,34.4,29.55,NE,45,2.0,8.7,94,0.07,,,1.34,WUHU216HW,2013-02-26 17:45:00,
2013-02-26 12:50:00,36.2,34.6,29.54,NNE,23,5.8,6.7,94,0.07,,,1.35,WUHU216HW,2013-02-26 17:50:00,
2013-02-26 12:55:00,36.4,34.7,29.54,ENE,68,4.3,5.8,94,0.07,,,1.35,WUHU216HW,2013-02-26 17:55:00,
2013-02-26 13:00:00,36.4,34.7,29.54,North,0,3.4,6.5,94,0.07,,,1.35,WUHU216HW,2013-02-26 18:00:00,
2013-02-26 13:05:00,36.5,34.9,29.54,NNE,23,2.2,6.5,94,0.07,,,1.35,WUHU216HW,2013-02-26 18:05:00,
2013-02-26 13:10:00,36.5,34.9,29.54,NNE,23,4.5,5.4,94,0.05,,,1.35,WUHU216HW,2013-02-26 18:10:00,
2013-02-26 13:15:00,36.7,35.1,29.53,East,90,2.7,8.1,94,0.05,,,1.35,WUHU216HW,2013-02-26 18:15:00,
2013-02-26 13:20:00,36.7,35.1,29.52,NNE,23,5.4,8.1,94,0.05,,,1.35,WUHU216HW,2013-02-26 18:20:00,
2013-02-26 13:25:00,36.9,35.3,29.52,NE,45,5.4,9.8,94,0.03,,,1.35,WUHU216HW,2013-02-26 18:25:00,
2013-02-26 13:30:00,37.1,35.5,29.52,North,0,4.3,9.8,94,0.02,,,1.35,WUHU216HW,2013-02-26 18:30:00,
2013-02-26 13:35:00,37.1,35.5,29.52,NE,45,2.5,7.8,94,0.02,,,1.35,WUHU216HW,2013-02-26 18:35:00,
2013-02-26 13:40:00,37.3,35.6,29.51,East,90,2.9,7.8,94,0.01,,,1.35,WUHU216HW,2013-02-26 18:40:00,
2013-02-26 13:45:00,37.4,35.8,29.51,NW,315,0.7,7.6,94,0.01,,,1.35,WUHU216HW,2013-02-26 18:45:00,
2013-02-26 13:50:00,37.4,35.8,29.50,NNE,23,3.8,11.0,94,0.00,,,1.35,WUHU216HW,2013-02-26 18:50:00,
2013-02-26 13:55:00,37.4,35.8,29.51,NE,45,2.5,11.0,94,0.00,,,1.35,WUHU216HW,2013-02-26 18:55:00,
2013-02-26 14:00:00,37.4,35.8,29.50,NE,45,6.3,6.3,94,0.00,,,1.35,WUHU216HW,2013-02-26 19:00:00,
2013-02-26 14:05:00,37.4,35.8,29.50,North,0,1.8,6.7,94,0.00,,,1.35,WUHU216HW,2013-02-26 19:05:00,
2013-02-26 14:10:00,37.6,36.0,29.50,NE,45,4.3,6.7,94,0.00,,,1.35,WUHU216HW,2013-02-26 19:10:00,
2013-02-26 14:15:00,37.4,35.8,29.49,NNE,23,4.7,6.5,94,0.00,,,1.35,WUHU216HW,2013-02-26 19:15:00,
2013-02-26 14:20:00,37.8,36.2,29.49,North,0,5.4,6.7,94,0.00,,,1.35,WUHU216HW,2013-02-26 19:20:00,
2013-02-26 14:25:00,37.8,36.2,29.49,NE,45,3.6,8.9,94,0.01,,,1.36,WUHU216HW,2013-02-26 19:25:00,
2013-02-26 14:30:00,37.8,36.2,29.49,NNE,23,2.5,8.9,94,0.01,,,1.36,WUHU216HW,2013-02-26 19:30:00,
2013-02-26 14:35:00,37.8,36.2,29.50,East,90,2.5,7.6,94,0.01,,,1.36,WUHU216HW,2013-02-26 19:35:00,
2013-02-26 14:40:00,38.0,36.4,29.49,NNE,23,2.5,7.6,94,0.01,,,1.36,WUHU216HW,2013-02-26 19:40:00,
2013-02-26 14:45:00,38.0,36.4,29.49,NNE,23,2.0,8.9,94,0.01,,,1.36,WUHU216HW,2013-02-26 19:45:00,
2013-02-26 14:50:00,38.2,36.5,29.49,ENE,68,4.0,8.9,94,0.01,,,1.36,WUHU216HW,2013-02-26 19:50:00,
2013-02-26 14:55:00,38.2,36.5,29.49,NNE,23,1.1,6.9,94,0.01,,,1.36,WUHU216HW,2013-02-26 19:55:00,
2013-02-26 15:00:00,38.3,36.7,29.48,NE,45,4.3,9.2,94,0.01,,,1.36,WUHU216HW,2013-02-26 20:00:00,
2013-02-26 15:05:00,38.3,36.7,29.49,NNE,23,3.4,9.2,94,0.01,,,1.36,WUHU216HW,2013-02-26 20:05:00,
2013-02-26 15:10:00,38.5,36.9,29.49,NNE,23,4.7,5.4,94,0.01,,,1.36,WUHU216HW,2013-02-26 20:10:00,
2013-02-26 15:15:00,38.5,36.9,29.49,ENE,68,4.0,5.4,94,0.01,,,1.36,WUHU216HW,2013-02-26 20:15:00,
2013-02-26 15:20:00,38.5,36.9,29.48,NNE,23,2.5,4.3,94,0.01,,,1.36,WUHU216HW,2013-02-26 20:20:00,
2013-02-26 15:25:00,38.5,36.9,29.49,NNE,23,2.7,5.4,94,0.00,,,1.36,WUHU216HW,2013-02-26 20:25:00,
2013-02-26 15:30:00,38.5,36.6,29.49,NNE,23,1.1,6.5,93,0.00,,,1.36,WUHU216HW,2013-02-26 20:30:00,
2013-02-26 15:35:00,38.5,36.9,29.50,NE,45,1.3,6.5,94,0.00,,,1.36,WUHU216HW,2013-02-26 20:35:00,
2013-02-26 15:40:00,38.7,36.8,29.50,North,0,2.5,5.6,93,0.00,,,1.36,WUHU216HW,2013-02-26 20:40:00,
2013-02-26 15:45:00,38.5,36.6,29.50,NNE,23,3.4,5.6,93,0.00,,,1.36,WUHU216HW,2013-02-26 20:45:00,
2013-02-26 15:50:00,38.7,36.8,29.50,North,0,2.7,5.4,93,0.00,,,1.36,WUHU216HW,2013-02-26 20:50:00,
2013-02-26 15:55:00,38.7,36.8,29.49,NE,45,2.5,5.4,93,0.00,,,1.36,WUHU216HW,2013-02-26 20:55:00,
2013-02-26 16:00:00,38.9,37.0,29.49,NE,45,0.9,4.9,93,0.00,,,1.36,WUHU216HW,2013-02-26 21:00:00,
2013-02-26 16:05:00,39.1,37.4,29.49,North,0,1.8,4.5,94,0.00,,,1.36,WUHU216HW,2013-02-26 21:05:00,
2013-02-26 16:10:00,39.1,37.2,29.49,ENE,68,1.3,4.5,93,0.00,,,1.36,WUHU216HW,2013-02-26 21:10:00,
2013-02-26 16:15:00,39.2,37.4,29.48,ENE,68,1.6,5.1,93,0.00,,,1.36,WUHU216HW,2013-02-26 21:15:00,
2013-02-26 16:20:00,39.2,37.6,29.49,SSW,203,0.4,5.1,94,0.00,,,1.36,WUHU216HW,2013-02-26 21:20:00,
2013-02-26 16:25:00,39.4,37.5,29.48,NNE,23,1.6,4.0,93,0.00,,,1.36,WUHU216HW,2013-02-26 21:25:00,
2013-02-26 16:30:00,39.2,37.4,29.48,ENE,68,2.5,4.0,93,0.00,,,1.36,WUHU216HW,2013-02-26 21:30:00,
2013-02-26 16:35:00,39.4,37.5,29.48,NNE,23,0.7,3.4,93,0.00,,,1.36,WUHU216HW,2013-02-26 21:35:00,
2013-02-26 16:40:00,39.4,37.5,29.48,NE,45,2.5,3.4,93,0.00,,,1.36,WUHU216HW,2013-02-26 21:40:00,
2013-02-26 16:45:00,39.4,37.5,29.48,NNE,23,0.2,2.9,93,0.00,,,1.36,WUHU216HW,2013-02-26 21:45:00,
2013-02-26 16:50:00,39.4,37.5,29.48,NNE,23,0.2,2.5,93,0.00,,,1.36,WUHU216HW,2013-02-26 21:50:00,
2013-02-26 16:55:00,39.6,37.7,29.48,NE,45,0.4,2.5,93,0.00,,,1.36,WUHU216HW,2013-02-26 21:55:00,
2013-02-26 17:00:00,39.6,37.7,29.48,NNE,23,1.8,2.7,93,0.00,,,1.36,WUHU216HW,2013-02-26 22:00:00,
2013-02-26 17:05:00,39.4,37.5,29.48,NE,45,0.7,4.0,93,0.00,,,1.36,WUHU216HW,2013-02-26 22:05:00,
2013-02-26 17:10:00,39.4,37.5,29.48,NE,45,1.8,4.0,93,0.00,,,1.36,WUHU216HW,2013-02-26 22:10:00,
2013-02-26 17:15:00,39.6,37.7,29.48,NNE,23,0.0,3.1,93,0.00,,,1.36,WUHU216HW,2013-02-26 22:15:00,
2013-02-26 17:20:00,39.8,37.9,29.48,NNE,23,2.5,3.1,93,0.00,,,1.36,WUHU216HW,2013-02-26 22:20:00,
2013-02-26 17:25:00,39.8,37.9,29.47,NE,45,1.6,4.0,93,0.00,,,1.36,WUHU216HW,2013-02-26 22:25:00,
2013-02-26 17:30:00,39.6,37.7,29.47,NNE,23,1.3,4.0,93,0.00,,,1.36,WUHU216HW,2013-02-26 22:30:00,
2013-02-26 17:35:00,39.6,37.7,29.47,ENE,68,3.4,4.0,93,0.00,,,1.36,WUHU216HW,2013-02-26 22:35:00,
2013-02-26 17:40:00,39.6,37.7,29.47,ENE,68,2.5,4.7,93,0.00,,,1.36,WUHU216HW,2013-02-26 22:40:00,
2013-02-26 17:45:00,39.6,37.7,29.48,ENE,68,0.2,4.7,93,0.00,,,1.36,WUHU216HW,2013-02-26 22:45:00,
2013-02-26 17:50:00,39.6,37.7,29.48,NNE,23,0.2,3.1,93,0.00,,,1.36,WUHU216HW,2013-02-26 22:50:00,
2013-02-26 17:55:00,39.6,37.7,29.48,NNE,23,0.0,3.1,93,0.00,,,1.36,WUHU216HW,2013-02-26 22:55:00,
2013-02-26 18:00:00,39.6,37.7,29.48,NE,45,1.3,1.3,93,0.00,,,1.36,WUHU216HW,2013-02-26 23:00:00,
2013-02-26 18:05:00,39.6,37.7,29.49,NE,45,0.2,1.3,93,0.00,,,1.36,WUHU216HW,2013-02-26 23:05:00,
2013-02-26 18:10:00,39.6,37.7,29.49,NE,45,0.4,1.3,93,0.00,,,1.36,WUHU216HW,2013-02-26 23:10:00,
2013-02-26 18:15:00,39.6,37.7,29.49,NE,45,0.0,1.6,93,0.00,,,1.36,WUHU216HW,2013-02-26 23:15:00,
2013-02-26 18:20:00,39.6,37.7,29.49,NE,45,0.0,1.6,93,0.00,,,1.36,WUHU216HW,2013-02-26 23:20:00,
2013-02-26 18:25:00,39.6,37.7,29.50,NE,45,0.4,0.4,93,0.00,,,1.36,WUHU216HW,2013-02-26 23:25:00,
2013-02-26 18:30:00,39.6,37.7,29.50,NE,45,0.0,0.4,93,0.00,,,1.36,WUHU216HW,2013-02-26 23:30:00,
2013-02-26 18:35:00,39.6,37.7,29.50,West,270,1.3,1.3,93,0.00,,,1.36,WUHU216HW,2013-02-26 23:35:00,
2013-02-26 18:40:00,39.6,37.7,29.50,NNE,23,0.0,2.2,93,0.00,,,1.36,WUHU216HW,2013-02-26 23:40:00,
2013-02-26 18:45:00,39.6,37.7,29.50,NNE,23,0.2,2.2,93,0.00,,,1.36,WUHU216HW,2013-02-26 23:45:00,
2013-02-26 18:50:00,39.4,37.5,29.51,NNE,23,0.0,0.4,93,0.00,,,1.36,WUHU216HW,2013-02-26 23:50:00,
2013-02-26 18:55:00,39.4,37.5,29.51,NNE,23,0.0,0.2,93,0.00,,,1.36,WUHU216HW,2013-02-26 23:55:00,
2013-02-26 19:00:00,39.6,37.7,29.51,NNE,23,0.0,0.0,93,0.00,,,1.36,WUHU216HW,2013-02-27 00:00:00,
2013-02-26 19:05:00,39.6,37.7,29.51,NNE,23,0.0,0.0,93,0.00,,,1.36,WUHU216HW,2013-02-27 00:05:00,
2013-02-26 19:10:00,39.6,37.7,29.51,NNE,23,0.4,0.7,93,0.00,,,1.36,WUHU216HW,2013-02-27 00:10:00,
2013-02-26 19:15:00,39.6,38.0,29.51,NNE,23,0.0,0.7,94,0.00,,,1.36,WUHU216HW,2013-02-27 00:15:00,
2013-02-26 19:20:00,39.6,37.7,29.51,South,180,0.9,1.1,93,0.00,,,1.36,WUHU216HW,2013-02-27 00:20:00,
2013-02-26 19:25:00,39.6,37.7,29.52,South,180,0.0,1.1,93,0.00,,,1.36,WUHU216HW,2013-02-27 00:25:00,
2013-02-26 19:30:00,39.6,37.7,29.52,South,180,0.0,0.9,93,0.00,,,1.36,WUHU216HW,2013-02-27 00:30:00,
2013-02-26 19:35:00,39.8,37.9,29.52,South,180,0.0,0.2,93,0.00,,,1.36,WUHU216HW,2013-02-27 00:35:00,
2013-02-26 19:40:00,39.8,37.9,29.53,South,180,0.4,0.4,93,0.00,,,1.36,WUHU216HW,2013-02-27 00:40:00,
2013-02-26 19:45:00,39.8,37.9,29.52,South,180,0.0,0.4,93,0.00,,,1.36,WUHU216HW,2013-02-27 00:45:00,
2013-02-26 19:50:00,39.8,37.9,29.52,South,180,0.0,0.4,93,0.00,,,1.36,WUHU216HW,2013-02-27 00:50:00,
2013-02-26 19:55:00,39.6,37.7,29.52,South,180,0.0,0.0,93,0.00,,,1.36,WUHU216HW,2013-02-27 00:55:00,
2013-02-26 20:00:00,39.8,37.9,29.52,South,180,0.0,0.9,93,0.00,,,1.36,WUHU216HW,2013-02-27 01:00:00,
2013-02-26 20:05:00,39.8,37.9,29.52,South,180,0.0,0.9,93,0.00,,,1.36,WUHU216HW,2013-02-27 01:05:00,
2013-02-26 20:10:00,39.8,37.9,29.52,South,180,0.4,0.9,93,0.00,,,1.36,WUHU216HW,2013-02-27 01:10:00,
2013-02-26 20:15:00,39.6,37.7,29.52,SSE,158,0.2,1.1,93,0.00,,,1.36,WUHU216HW,2013-02-27 01:15:00,
2013-02-26 20:20:00,39.8,37.9,29.52,SSE,158,0.0,1.1,93,0.00,,,1.36,WUHU216HW,2013-02-27 01:20:00,
2013-02-26 20:25:00,39.8,37.9,29.52,SSE,158,0.0,0.4,93,0.00,,,1.36,WUHU216HW,2013-02-27 01:25:00,
2013-02-26 20:30:00,39.8,37.9,29.52,SSE,158,0.0,0.4,93,0.00,,,1.36,WUHU216HW,2013-02-27 01:30:00,
2013-02-26 20:35:00,39.8,37.9,29.52,SSE,158,0.0,0.2,93,0.00,,,1.36,WUHU216HW,2013-02-27 01:35:00,
2013-02-26 20:40:00,39.8,37.9,29.52,SSE,158,0.0,0.2,93,0.00,,,1.36,WUHU216HW,2013-02-27 01:40:00,
2013-02-26 20:45:00,39.8,37.9,29.52,SSE,158,0.0,0.2,93,0.00,,,1.36,WUHU216HW,2013-02-27 01:45:00,
2013-02-26 20:50:00,39.8,37.9,29.52,SSE,158,0.0,0.2,93,0.00,,,1.36,WUHU216HW,2013-02-27 01:50:00,
2013-02-26 20:55:00,39.8,37.9,29.52,SSE,158,0.0,0.2,93,0.00,,,1.36,WUHU216HW,2013-02-27 01:55:00,
2013-02-26 21:00:00,39.8,37.9,29.52,SSE,158,0.2,0.2,93,0.00,,,1.36,WUHU216HW,2013-02-27 02:00:00,
2013-02-26 21:05:00,39.8,37.9,29.52,South,180,0.0,1.1,93,0.00,,,1.36,WUHU216HW,2013-02-27 02:05:00,
2013-02-26 21:10:00,40.0,38.1,29.53,South,180,0.0,1.1,93,0.00,,,1.36,WUHU216HW,2013-02-27 02:10:00,
2013-02-26 21:15:00,40.0,38.1,29.53,South,180,0.0,0.7,93,0.00,,,1.36,WUHU216HW,2013-02-27 02:15:00,
2013-02-26 21:20:00,40.0,38.1,29.53,SSE,158,0.4,0.4,93,0.00,,,1.36,WUHU216HW,2013-02-27 02:20:00,
2013-02-26 21:25:00,40.0,38.3,29.53,NE,45,0.4,1.1,94,0.00,,,1.36,WUHU216HW,2013-02-27 02:25:00,
2013-02-26 21:30:00,40.0,38.3,29.53,ENE,68,1.8,1.8,94,0.00,,,1.36,WUHU216HW,2013-02-27 02:30:00,
2013-02-26 21:35:00,40.0,38.1,29.54,ENE,68,0.0,1.8,93,0.00,,,1.36,WUHU216HW,2013-02-27 02:35:00,
2013-02-26 21:40:00,40.0,38.1,29.54,ENE,68,0.0,1.8,93,0.00,,,1.36,WUHU216HW,2013-02-27 02:40:00,
2013-02-26 21:45:00,40.0,38.1,29.53,ENE,68,0.0,0.4,93,0.00,,,1.36,WUHU216HW,2013-02-27 02:45:00,
2013-02-26 21:50:00,40.1,38.3,29.53,ENE,68,0.2,0.4,93,0.00,,,1.36,WUHU216HW,2013-02-27 02:50:00,
2013-02-26 21:55:00,40.1,38.3,29.53,SSW,203,0.4,1.1,93,0.00,,,1.36,WUHU216HW,2013-02-27 02:55:00,
2013-02-26 22:00:00,40.3,38.7,29.53,SSW,203,0.9,1.3,94,0.00,,,1.36,WUHU216HW,2013-02-27 03:00:00,
2013-02-26 22:05:00,40.7,39.1,29.54,SW,225,4.7,4.7,94,0.00,,,1.36,WUHU216HW,2013-02-27 03:05:00,
2013-02-26 22:10:00,41.0,39.4,29.54,South,180,0.9,4.7,94,0.00,,,1.36,WUHU216HW,2013-02-27 03:10:00,
2013-02-26 22:15:00,41.4,39.8,29.54,SW,225,1.1,4.9,94,0.00,,,1.36,WUHU216HW,2013-02-27 03:15:00,
2013-02-26 22:20:00,41.4,39.8,29.54,SSW,203,4.7,4.9,94,0.00,,,1.36,WUHU216HW,2013-02-27 03:20:00,
2013-02-26 22:25:00,41.6,40.0,29.54,SW,225,3.4,7.8,94,0.00,,,1.36,WUHU216HW,2013-02-27 03:25:00,
2013-02-26 22:30:00,41.6,40.0,29.53,SW,225,2.5,7.8,94,0.00,,,1.36,WUHU216HW,2013-02-27 03:30:00,
2013-02-26 22:35:00,41.6,40.0,29.53,SSW,203,2.5,6.3,94,0.00,,,1.36,WUHU216HW,2013-02-27 03:35:00,
2013-02-26 22:40:00,41.4,39.8,29.52,SSW,203,2.7,5.1,94,0.00,,,1.36,WUHU216HW,2013-02-27 03:40:00,
2013-02-26 22:45:00,41.4,39.8,29.52,SSW,203,1.6,5.1,94,0.00,,,1.36,WUHU216HW,2013-02-27 03:45:00,
2013-02-26 22:50:00,41.2,39.6,29.52,SSE,158,4.3,4.7,94,0.00,,,1.36,WUHU216HW,2013-02-27 03:50:00,
2013-02-26 22:55:00,41.2,39.6,29.52,SSW,203,2.9,4.5,94,0.00,,,1.36,WUHU216HW,2013-02-27 03:55:00,
2013-02-26 23:00:00,41.0,39.4,29.52,SSW,203,3.4,4.9,94,0.00,,,1.36,WUHU216HW,2013-02-27 04:00:00,
2013-02-26 23:05:00,41.0,39.4,29.52,SSW,203,3.6,4.9,94,0.00,,,1.36,WUHU216HW,2013-02-27 04:05:00,
2013-02-26 23:10:00,41.0,39.4,29.52,South,180,3.4,4.7,94,0.00,,,1.36,WUHU216HW,2013-02-27 04:10:00,
2013-02-26 23:15:00,40.9,39.2,29.52,SSW,203,1.8,4.7,94,0.00,,,1.36,WUHU216HW,2013-02-27 04:15:00,
2013-02-26 23:20:00,40.7,39.1,29.52,SSW,203,4.7,5.4,94,0.00,,,1.36,WUHU216HW,2013-02-27 04:20:00,
2013-02-26 23:25:00,40.7,39.1,29.52,SSW,203,4.7,7.6,94,0.00,,,1.36,WUHU216HW,2013-02-27 04:25:00,
2013-02-26 23:30:00,40.7,39.1,29.52,SSW,203,3.1,7.6,94,0.00,,,1.36,WUHU216HW,2013-02-27 04:30:00,
2013-02-26 23:35:00,40.7,39.1,29.52,SW,225,4.7,7.6,94,0.00,,,1.36,WUHU216HW,2013-02-27 04:35:00,
2013-02-26 23:40:00,40.7,39.1,29.52,SSW,203,4.7,8.7,94,0.00,,,1.36,WUHU216HW,2013-02-27 04:40:00,
2013-02-26 23:45:00,40.9,39.0,29.52,SSW,203,7.8,14.3,93,0.00,,,1.36,WUHU216HW,2013-02-27 04:45:00,
2013-02-26 23:50:00,40.9,39.0,29.52,SW,225,9.8,14.3,93,0.00,,,1.36,WUHU216HW,2013-02-27 04:50:00,
2013-02-26 23:55:00,41.0,38.9,29.52,SW,225,4.3,9.8,92,0.00,,,1.36,WUHU216HW,2013-02-27 04:55:00,